Home > Weather > Porto Acre > Past weeks

Flag for Brazil Weather for the Past 2 Weeks in Porto Acre, Acre, Brazil

Now
72 °F

Sunny.


Feels Like: 67 °F
Forecast: 67 / 92 °F
Wind: No wind

Location: Rio Branco Airport

Current Time: May 3, 2016 at 8:07:45 AM

Latest Report: May 3, 2016 at 7:00 AM


Visibility: 10 mi

Pressure: 30.01 "Hg

Humidity: 94%

Dew Point: 70 °F

Location of Porto AcreLocation

Historic Weather in Porto Acre — Graph

°F

Porto Acre Temperature Yesterday

Maximum temperature yesterday: 84 °F (at 1:00 PM)
Minimum temperature yesterday: 63 °F (at 5:00 AM)
Average temperature yesterday: 73 °F

High & Low Weather Summary for the Past Weeks

 TemperatureHumidityPressure
High91 °F (Apr 19, 2:00 PM)100% (Apr 18, 6:00 AM)30.12 "Hg (Apr 18, 6:00 AM)
Low61 °F (Apr 27, 6:00 AM)50% (Apr 29, 10:00 AM)29.71 "Hg (Apr 25, 3:00 PM)
Average76 °F82%29.91 "Hg
* Reported Apr 18 6:00 AM — May 3 6:00 AM, Porto Acre, Weather by CustomWeather, © 2016

Note: Actual official high and low records may vary slightly from our data, if they occured in-between our weather recording intervals... More about our weather records

Advertising

Porto Acre Weather History for the Previous 24 Hours

Scroll right to see more
 ConditionsComfort  
Time TempWeatherWind HumidityBarometerVisibility
6:00 AM
Tue, May 3
66 °FSunny.2 mph94%29.98 "Hg10 mi
5:00 AM66 °FClear.No wind100%29.95 "Hg10 mi
4:00 AM66 °FClear.2 mph100%29.95 "Hg10 mi
3:00 AM68 °FClear.3 mph94%29.95 "Hg10 mi
2:00 AM70 °FClear.5 mph94%29.92 "Hg10 mi
1:00 AM66 °FClear.3 mph100%29.95 "Hg10 mi
12:00 AM68 °FClear.No wind94%29.98 "Hg10 mi
11:00 PM
Mon, May 2
68 °FClear.2 mph100%29.98 "Hg10 mi
10:00 PM70 °FClear.2 mph94%29.98 "Hg10 mi
9:00 PM70 °FClear.No wind100%29.98 "Hg10 mi
8:00 PM72 °FClear.No wind88%29.98 "Hg10 mi
7:00 PM73 °FClear.3 mph83%29.95 "Hg10 mi
6:00 PM73 °FClear.5 mph89%29.92 "Hg10 mi
5:00 PM82 °FSunny.2 mph66%29.92 "Hg10 mi
4:00 PM84 °FSunny.3 mph55%29.92 "Hg10 mi
3:00 PM84 °FSunny.2 mph51%29.92 "Hg10 mi
2:00 PM84 °FSunny.5 mph55%29.95 "Hg10 mi
1:00 PM84 °FSunny.5 mph51%29.98 "Hg10 mi
12:00 PM82 °FPassing clouds.7 mph55%30.01 "HgN/A
11:00 AM81 °FPassing clouds.7 mph58%30.04 "HgN/A
10:00 AM79 °FPassing clouds.7 mph58%30.04 "HgN/A
9:00 AM77 °FSunny.6 mph65%30.04 "Hg10 mi
8:00 AM72 °FSunny.3 mph78%30.01 "Hg10 mi
Weather by CustomWeather, © 2016

See weather overviewHow to use our weather pages